Vertical_Velocity
-0 -0 -1 -1 -1 -3 -1 -1 0 3 2 3 6 5 2 2 8 -7 9 6 4 4 5 -0 2 2 9 4 5 22 -2 -6 -7 -8 0 5 3 0 -1 2 6 4 -4 -1 1 -11 -8 4 9 16 -5 -17 4 1
0 1 1 -2 -2 -0 -1 1 -2 1 5 4 4 6 8 6 8 2 -2 11 3 2 -0 2 3 -2 6 12 12 -3 5 -6 -3 -11 -7 3 5 0 5 -2 -5 -6 8 -5 -12 -3 -3 7 2 4 1 -6 -14 -6
1 1 0 -0 1 1 2 -0 0 -1 1 6 5 6 9 6 9 2 0 0 6 5 6 -5 2 3 3 11 8 1 -0 -6 8 4 -1 -3 -5 3 -1 4 -4 3 2 -3 -21 31 -5 -4 -3 2 0 -2 -8 -6
1 1 -2 -6 -3 -2 -1 1 1 0 -0 5 4 6 6 7 8 4 5 8 4 7 2 10 -1 5 1 5 3 8 3 -3 1 2 -7 -4 3 -1 1 -4 -5 3 -7 6 -13 12 -4 5 5 -10 -7 -2 -3 -10
-0 -2 -1 -2 -5 -4 -1 -2 -1 1 3 4 7 4 4 6 6 8 3 7 1 8 -8 -0 3 3 -1 4 2 5 4 6 3 -4 -7 -1 -0 -1 3 -3 0 2 0 -13 -3 -1 -7 21 -1 -9 -2 2 5 -1
-2 -1 -2 -4 3 1 1 -0 2 2 0 4 6 6 8 3 -1 -5 -11 -6 -4 -5 -5 -5 -2 -7 3 3 -1 -1 -0 2 -3 -5 -2 0 6 -1 -9 -1 1 1 3 -3 -3 -1 -3 0 -4 -1 2 -0 -5 8
0 0 -0 -2 0 4 1 -8 -2 3 3 4 4 4 4 1 -6 -5 -1 17 -1 -1 -3 -6 -5 -2 7 2 -1 9 -9 1 -4 -4 -5 -2 1 -5 -8 -10 -0 -6 -8 -8 -6 4 -2 -2 0 1 2 5 -4 10
2 0 1 1 -4 0 0 -5 -1 6 5 6 5 1 2 0 2 -4 5 -0 -5 -3 -7 -8 -8 -6 4 10 1 0 9 8 9 -3 0 2 -5 -3 -13 -5 -1 -2 2 -3 -5 2 6 -1 2 1 3 1 1 9
2 1 -4 3 3 1 -1 0 1 5 1 2 7 3 12 32 2 -8 -0 -3 -5 -3 -2 21 10 30 -9 4 6 3 2 2 3 -4 -5 -2 -4 -13 -8 1 3 3 -2 -4 1 -3 6 1 4 1 6 5 -4 -1
2 6 0 -6 -2 -4 1 1 3 -5 1 -1 7 29 -2 3 1 0 -2 -1 -1 -4 -1 1 13 4 6 6 -1 8 0 -1 -9 3 2 -10 -5 -4 0 4 -5 4 -3 4 2 7 8 18 1 -1 -1 -1 1 -2
1 6 2 -1 -4 -2 -4 4 1 2 11 9 -9 4 -1 -1 2 -2 -5 5 3 1 17 21 -1 2 20 7 7 1 1 -3 1 2 -7 -11 -11 -4 3 2 -3 -2 -0 -3 6 -2 -0 0 0 2 -1 0 -0 0
0 3 3 3 1 -1 -3 -0 -5 2 1 3 4 2 -1 -5 18 8 -1 -5 -10 2 1 2 -0 2 -1 -2 4 4 -4 -3 -6 5 -8 -14 6 6 4 0 2 2 -2 -2 2 -2 -1 -2 -3 -3 -1 -1 -0 3
-1 -0 2 2 2 4 -0 4 -2 4 6 6 -4 -4 -7 -3 -9 -4 -2 2 1 -1 1 1 1 -1 -5 -2 -1 -1 -1 -3 4 -4 -9 7 2 0 1 2 1 -2 -1 -1 -0 -2 2 1 -0 -2 -1 -2 -2 -3
3 -2 1 2 0 1 6 2 -1 -2 -6 -3 -3 -7 -15 -7 -2 3 -1 0 -1 -3 -5 -3 -0 1 -0 0 -0 -1 -2 -2 -6 2 0 -1 2 0 1 -1 -2 -1 1 2 -3 -4 2 1 -1 2 0 -0 -2 -1
-1 -0 -5 -1 1 -1 -4 3 3 4 -0 -4 -3 0 1 5 3 3 4 4 1 -1 -2 -2 -2 -2 -2 -3 -2 3 -5 -8 -2 0 2 4 7 5 9 2 2 4 2 1 1 -1 -0 -1 0 0 1 -0 -0 1
-1 2 0 -3 -2 -2 -1 -3 -3 0 1 -0 4 4 1 0 -1 -1 -0 -2 -2 1 2 1 0 -2 -3 -2 4 2 2 4 3 -1 -2 -4 -3 -2 1 0 4 1 4 0 3 -0 0 0 -2 -4 -6 -4 -1 -0
1 -0 2 -1 0 -1 -2 -1 -0 -3 0 1 2 -1 0 -0 0 0 -1 -2 -2 2 6 3 3 2 4 3 4 3 2 2 4 3 7 6 4 3 2 -1 -2 -1 1 3 3 0 0 0 2 0 3 4 4 4
-1 -1 -3 -2 -2 -1 -3 -3 -1 -0 -3 1 3 1 0 0 -1 -1 -1 1 3 3 2 1 5 3 3 9 8 2 2 1 1 4 5 4 3 4 6 8 7 6 7 5 3 1 1 2 3 4 4 3 4 2
9 3 -2 -4 -4 -3 -2 -4 -4 -3 -1 0 2 1 -3 -3 -1 -0 -0 0 3 6 6 4 3 2 3 3 2 1 2 1 1 -0 -1 0 0 0 0 -0 -0 1 1 1 1 3 5 5 4 3 3 3 2 3
7 6 3 -0 -3 -5 -6 -4 -5 -0 1 -1 -2 -2 -2 -3 -1 1 2 2 0 3 1 1 0 1 1 2 2 2 2 2 3 3 3 2 1 1 1 2 2 3 3 3 3 3 3 3 2 2 2 2 1 1
3 4 1 -0 -3 -7 -5 -3 -1 -2 -2 1 2 -1 -2 0 2 1 1 3 2 0 1 1 2 2 2 2 1 1 0 0 0 1 1 0 0 -0 0 0 -0 -0 0 -0 0 1 2 1 1 2 2 1 1 1
0 -0 0 -3 5 -4 -2 -2 -2 3 -1 -2 0 1 2 2 2 1 1 1 1 3 1 -1 -1 -1 -1 -0 0 0 0 1 0 -0 -0 -0 -2 -1 -1 -1 -0 1 1 2 2 3 3 3 3 3 2 1 1 1
2 2 4 -6 -2 -3 2 -0 2 5 2 -1 1 2 1 -0 -2 0 0 -0 -1 -1 -1 -1 -1 -1 -0 -1 -1 -1 -1 -1 -1 -1 -1 -1 -1 -0 1 2 2 3 3 2 2 2 1 1 1 0 0 0 -0 -0
4 -7 -3 -3 3 -2 -2 -4 -0 1 1 1 -1 1 0 1 -0 1 -1 -1 -1 0 1 1 1 0 0 0 -1 -1 -2 -2 -3 -4 -3 -2 -0 0 2 3 3 2 2 2 1 0 0 0 0 -0 -0 -0 -0 -1
-4 -2 -1 2 -0 -1 -2 -2 -1 1 -1 -1 0 1 -0 0 1 -0 1 1 1 1 2 2 0 -1 -2 -2 -3 -4 -5 -6 -6 -4 -3 -1 -0 0 1 1 2 2 2 2 1 0 0 -0 0 0 0 1 0 -1
-2 -1 1 0 1 2 1 1 1 1 2 1 -0 0 -0 -0 0 -0 -0 -1 -1 -2 -2 -2 -3 -4 -4 -4 -5 -6 -7 -8 -5 -2 -1 -0 1 2 2 1 2 1 1 2 1 -0 -0 -1 -1 -1 -0 -0 -0 0
-1 -1 -1 -1 1 1 1 -0 -0 -1 -1 -0 -0 -0 1 0 -1 -3 -4 -4 -4 -3 -2 -1 -1 -2 -2 -2 -3 -4 -6 -4 -2 -1 -1 -1 -1 -0 0 -0 0 -0 -1 -0 1 0 -0 0 -0 -1 -1 -0 -0 -1
0 0 1 0 -0 -0 -1 -0 0 -0 -1 -2 -3 -4 -4 -3 -3 -2 -2 -2 -3 -2 -2 -4 -5 -4 -4 -5 -5 -5 -4 -3 -2 -2 -2 -2 -1 -1 -1 -1 -1 -1 -1 -1 -0 0 1 1 1 1 1 1 0 -0
-0 -0 1 -1 -1 -1 -1 -1 -2 -1 -1 -1 -2 -1 -2 -3 -3 -2 -3 -4 -3 -3 -4 -3 -4 -5 -5 -4 -4 -4 -3 -1 0 0 -1 -2 -3 -2 -2 -1 -1 -1 -1 -1 -0 0 0 0 -0 -0 -0 -0 -0 -0
0 2 2 0 1 -0 -1 0 -0 -1 -1 -2 -1 -2 -3 -4 -3 -2 -3 -3 -3 -3 -2 -2 -3 -4 -4 -3 -3 -3 -1 -1 -0 0 1 1 0 -0 -1 -1 -1 -1 -0 0 0 0 0 0 0 0 -0 -1 -1 -1
3 2 1 1 0 -0 -0 -1 -1 -2 -1 -1 -1 -2 -2 -3 -2 -4 -4 -2 -2 -2 -3 -3 -3 -3 -3 -5 -4 -2 -2 -1 -1 -1 -1 0 1 0 -0 1 1 1 1 0 0 1 1 0 0 -0 -0 0 0 -0
4 3 2 2 2 0 -0 0 -2 -2 -0 -1 -1 -0 -2 -2 -2 -2 -2 -2 -2 -3 -3 -3 -3 -3 -1 -1 0 0 1 1 0 -0 -1 -1 -0 1 1 1 1 1 1 1 0 -1 -1 -1 -1 -1 -1 -0 -1 -1
-0 -1 0 2 2 3 1 -1 -0 -1 -1 -2 -2 -2 -1 -1 -2 -2 -2 -1 -2 -2 -2 -2 -2 -3 -4 -2 -1 -1 -1 -0 1 1 0 0 1 1 1 1 0 0 0 0 0 0 0 0 0 0 0 -0 -0 -0
Height
5358 5352 5345 5340 5337 5335 5333 5334 5337 5345 5355 5364 5372 5381 5389 5398 5405 5414 5420 5427 5434 5442 5449 5455 5462 5470 5476 5483 5491 5496 5498 5503 5508 5514 5519 5524 5529 5533 5536 5540 5544 5547 5550 5553 5555 5559 5565 5565 5566 5569 5569 5572 5577 5581
5351 5344 5338 5333 5329 5324 5321 5323 5326 5330 5341 5352 5361 5371 5381 5389 5398 5406 5412 5420 5427 5435 5442 5448 5455 5462 5469 5477 5481 5484 5493 5496 5502 5507 5513 5517 5522 5527 5531 5534 5536 5541 5544 5547 5551 5557 5558 5558 5556 5557 5559 5561 5568 5569
5346 5339 5332 5325 5318 5314 5312 5313 5315 5319 5326 5338 5350 5360 5371 5380 5390 5398 5406 5414 5421 5426 5432 5440 5448 5455 5461 5468 5474 5481 5487 5491 5494 5500 5505 5510 5515 5519 5522 5526 5529 5533 5534 5538 5542 5551 5549 5550 5550 5550 5548 5549 5555 5560
5342 5334 5324 5313 5306 5301 5300 5301 5305 5310 5316 5326 5337 5349 5360 5370 5381 5390 5399 5407 5415 5421 5426 5433 5438 5447 5454 5461 5467 5474 5479 5483 5488 5492 5497 5503 5507 5511 5515 5517 5522 5524 5526 5530 5536 5538 5541 5544 5542 5541 5542 5544 5548 5549
5340 5331 5321 5310 5302 5295 5292 5291 5294 5301 5309 5318 5328 5339 5350 5361 5370 5380 5389 5398 5405 5414 5420 5424 5431 5440 5446 5454 5460 5467 5472 5477 5481 5485 5490 5494 5498 5502 5505 5509 5513 5515 5518 5520 5527 5528 5532 5536 5533 5532 5537 5537 5539 5541
5340 5331 5321 5311 5301 5292 5288 5287 5287 5292 5301 5312 5323 5332 5343 5353 5363 5373 5383 5393 5400 5405 5413 5418 5424 5431 5438 5446 5453 5459 5466 5471 5474 5478 5482 5486 5491 5492 5495 5500 5504 5507 5509 5512 5516 5518 5521 5523 5524 5526 5527 5529 5531 5532
5341 5334 5324 5315 5305 5294 5286 5282 5283 5288 5295 5308 5320 5332 5343 5353 5364 5377 5387 5394 5398 5404 5410 5413 5417 5425 5434 5441 5450 5456 5459 5465 5469 5472 5476 5481 5482 5482 5487 5490 5495 5497 5497 5499 5502 5507 5509 5512 5515 5517 5519 5521 5523 5523
5344 5337 5329 5320 5311 5302 5292 5282 5276 5284 5296 5307 5320 5332 5344 5354 5364 5375 5383 5388 5395 5401 5405 5410 5415 5420 5429 5437 5443 5451 5455 5459 5463 5466 5472 5474 5474 5476 5478 5483 5485 5488 5489 5488 5491 5494 5498 5501 5504 5507 5509 5511 5513 5513
5348 5343 5336 5328 5319 5313 5304 5294 5290 5295 5305 5315 5326 5336 5348 5358 5367 5375 5383 5390 5395 5402 5404 5409 5413 5417 5424 5433 5439 5445 5450 5453 5456 5461 5465 5466 5468 5470 5475 5478 5479 5479 5481 5484 5484 5486 5489 5492 5495 5498 5500 5501 5504 5504
5352 5349 5344 5338 5331 5327 5321 5317 5315 5315 5320 5328 5338 5345 5353 5362 5371 5379 5387 5393 5398 5402 5405 5408 5412 5417 5426 5431 5435 5443 5446 5449 5452 5457 5457 5460 5462 5465 5467 5469 5472 5474 5475 5477 5479 5479 5481 5483 5486 5489 5490 5492 5494 5495
5356 5355 5351 5347 5342 5338 5337 5336 5335 5335 5338 5342 5347 5354 5360 5367 5377 5386 5392 5397 5400 5405 5406 5411 5417 5422 5428 5431 5435 5439 5443 5446 5450 5453 5453 5455 5457 5459 5461 5462 5464 5465 5468 5471 5471 5473 5474 5477 5479 5482 5483 5484 5484 5484
5360 5359 5358 5355 5353 5349 5348 5348 5349 5350 5352 5355 5359 5365 5370 5378 5384 5389 5394 5400 5405 5409 5412 5417 5420 5423 5427 5431 5435 5438 5441 5443 5444 5447 5446 5448 5451 5452 5454 5455 5455 5456 5459 5462 5464 5466 5468 5470 5472 5474 5474 5474 5474 5474
5362 5363 5363 5362 5361 5359 5358 5358 5359 5359 5361 5363 5367 5373 5379 5385 5389 5395 5399 5405 5408 5411 5415 5419 5423 5426 5428 5431 5434 5436 5437 5438 5439 5439 5440 5443 5443 5442 5443 5444 5446 5447 5449 5453 5456 5459 5460 5462 5463 5465 5465 5464 5465 5465
5363 5365 5366 5367 5367 5367 5366 5366 5367 5370 5373 5377 5381 5385 5389 5392 5396 5400 5405 5409 5413 5415 5417 5420 5423 5425 5427 5429 5430 5431 5432 5432 5433 5435 5437 5438 5438 5437 5437 5437 5438 5439 5442 5446 5449 5451 5453 5453 5454 5455 5455 5454 5454 5454
5363 5364 5366 5369 5371 5373 5374 5375 5377 5379 5381 5386 5389 5392 5395 5399 5403 5406 5409 5412 5414 5416 5418 5420 5422 5424 5425 5426 5427 5426 5428 5429 5431 5433 5433 5433 5433 5433 5433 5432 5431 5432 5436 5439 5441 5443 5444 5444 5445 5445 5445 5445 5445 5443
5362 5364 5366 5369 5372 5375 5377 5380 5383 5386 5389 5392 5395 5397 5400 5403 5406 5408 5411 5413 5415 5416 5418 5420 5421 5423 5423 5423 5424 5425 5426 5429 5431 5430 5429 5429 5429 5428 5427 5426 5426 5427 5430 5432 5434 5435 5435 5435 5435 5435 5435 5434 5432 5431
5362 5363 5365 5369 5372 5376 5379 5383 5386 5389 5392 5395 5396 5399 5402 5405 5407 5409 5411 5414 5416 5418 5420 5421 5422 5423 5423 5423 5423 5424 5425 5426 5425 5424 5425 5424 5422 5422 5421 5421 5422 5424 5425 5425 5425 5426 5426 5425 5424 5424 5422 5421 5420 5418
5361 5362 5365 5369 5372 5376 5380 5385 5389 5393 5396 5398 5400 5401 5403 5406 5409 5412 5414 5416 5419 5420 5422 5422 5423 5424 5424 5424 5424 5423 5423 5423 5423 5422 5421 5420 5418 5418 5418 5418 5418 5418 5417 5416 5416 5416 5415 5415 5414 5412 5410 5410 5408 5406
5364 5363 5365 5369 5372 5377 5382 5386 5392 5397 5400 5402 5404 5406 5409 5412 5415 5417 5419 5421 5422 5423 5423 5423 5424 5424 5424 5424 5424 5424 5424 5423 5423 5422 5420 5419 5418 5417 5416 5415 5414 5413 5411 5410 5409 5408 5406 5405 5404 5402 5400 5398 5396 5394
5368 5368 5368 5370 5374 5379 5384 5390 5396 5401 5404 5407 5409 5412 5415 5418 5420 5421 5423 5424 5425 5425 5425 5425 5425 5425 5425 5424 5424 5423 5423 5422 5421 5419 5418 5417 5416 5414 5413 5411 5409 5407 5405 5403 5401 5399 5397 5395 5393 5391 5388 5386 5383 5382
5376 5376 5375 5376 5379 5384 5391 5397 5402 5406 5408 5412 5414 5418 5420 5422 5424 5425 5426 5426 5427 5428 5428 5428 5428 5427 5426 5425 5424 5423 5422 5420 5418 5416 5414 5412 5410 5408 5405 5402 5400 5397 5394 5392 5389 5386 5384 5381 5379 5377 5375 5372 5369 5367
5386 5387 5388 5389 5392 5395 5400 5405 5409 5412 5415 5417 5419 5422 5424 5425 5426 5427 5428 5429 5430 5431 5431 5429 5428 5427 5426 5424 5422 5420 5417 5415 5412 5409 5406 5402 5399 5395 5391 5387 5384 5380 5377 5374 5372 5369 5367 5365 5362 5360 5358 5355 5353 5351
5394 5396 5398 5400 5404 5406 5410 5411 5415 5417 5420 5422 5424 5426 5427 5428 5430 5432 5432 5432 5432 5431 5430 5428 5427 5424 5422 5419 5416 5412 5409 5405 5401 5397 5392 5387 5382 5377 5372 5368 5365 5362 5359 5356 5354 5352 5350 5348 5347 5345 5343 5341 5338 5336
5401 5401 5405 5408 5411 5413 5416 5418 5421 5423 5424 5427 5429 5430 5431 5433 5433 5433 5433 5432 5431 5429 5427 5425 5423 5419 5416 5412 5408 5404 5399 5394 5389 5383 5376 5369 5363 5358 5354 5351 5348 5346 5344 5341 5339 5338 5336 5335 5333 5332 5330 5328 5325 5323
5407 5410 5413 5415 5417 5418 5420 5422 5425 5428 5429 5430 5431 5433 5433 5434 5433 5433 5431 5430 5428 5426 5423 5420 5417 5413 5409 5405 5400 5395 5389 5382 5375 5367 5359 5352 5347 5342 5339 5337 5335 5333 5332 5331 5330 5328 5327 5326 5324 5322 5320 5318 5316 5314
5411 5414 5417 5419 5421 5424 5425 5427 5428 5430 5431 5432 5432 5433 5433 5433 5432 5430 5429 5426 5424 5421 5418 5415 5412 5407 5403 5397 5391 5384 5377 5368 5360 5353 5346 5341 5335 5330 5327 5325 5325 5324 5324 5323 5323 5321 5320 5319 5317 5316 5314 5312 5311 5309
5415 5417 5420 5422 5424 5427 5428 5429 5430 5431 5431 5432 5432 5432 5431 5430 5429 5427 5425 5422 5419 5416 5413 5409 5405 5400 5395 5388 5381 5373 5365 5356 5349 5344 5338 5332 5326 5321 5318 5316 5316 5316 5316 5316 5315 5314 5313 5312 5310 5309 5308 5307 5306 5304
5417 5419 5422 5424 5425 5427 5428 5429 5430 5430 5431 5431 5431 5430 5428 5427 5425 5422 5419 5416 5412 5409 5405 5401 5397 5391 5385 5379 5372 5363 5355 5347 5341 5336 5331 5326 5321 5316 5313 5311 5310 5309 5309 5309 5308 5308 5308 5307 5307 5306 5305 5303 5301 5299
5417 5419 5422 5423 5425 5426 5427 5428 5428 5428 5428 5428 5427 5426 5424 5422 5420 5417 5413 5410 5406 5402 5398 5393 5387 5381 5375 5368 5361 5353 5346 5340 5335 5330 5326 5322 5318 5314 5311 5309 5307 5306 5306 5306 5306 5305 5305 5304 5303 5302 5300 5298 5296 5293
5416 5419 5421 5422 5424 5424 5425 5426 5425 5425 5425 5424 5423 5421 5419 5417 5414 5410 5407 5403 5399 5395 5390 5384 5378 5372 5365 5358 5351 5345 5338 5333 5328 5325 5321 5318 5316 5314 5311 5309 5308 5306 5306 5305 5304 5303 5302 5300 5299 5297 5295 5292 5290 5287
5414 5417 5418 5419 5420 5421 5422 5422 5422 5421 5421 5419 5417 5416 5413 5410 5407 5403 5399 5395 5391 5386 5381 5375 5369 5362 5355 5347 5340 5333 5328 5324 5321 5318 5316 5314 5312 5310 5309 5307 5306 5305 5303 5302 5300 5299 5297 5295 5293 5291 5289 5286 5283 5280
5412 5414 5415 5416 5417 5418 5418 5418 5417 5416 5415 5413 5411 5409 5406 5403 5399 5396 5391 5387 5383 5378 5372 5366 5359 5353 5346 5339 5331 5325 5320 5317 5315 5312 5311 5309 5307 5306 5305 5303 5302 5300 5299 5297 5295 5293 5292 5289 5287 5285 5282 5279 5275 5271
5407 5409 5410 5412 5413 5413 5413 5413 5412 5410 5409 5407 5404 5402 5399 5395 5392 5388 5383 5379 5374 5369 5363 5357 5351 5344 5337 5329 5323 5318 5314 5312 5309 5307 5305 5304 5302 5301 5299 5298 5296 5295 5293 5292 5290 5288 5286 5284 5281 5278 5275 5271 5268 5263